Location: ???????
(60.4260°N, 46.9069°E)
Time: 05:43:42
(UTC+00:00)

CZ-4C R/B - Pass Details

Date: 30 March 2020
Orbit: 410 x 491 km, 97.6° (Epoch: 05 June)

Event Time Altitude Azimuth Distance (km) Brightness Sun altitude
Exits shadow 00:21:06 30° 251° (WSW) 790 3.6 -14.5°
Maximum altitude 00:21:23 31° 262° (W) 778 3.6 -14.5°
Drops below altitude 10° 00:24:18 10° 327° (NNW) 1,508 5.6 -14.2°
Sets 00:26:26 0° 338° (NNW) 2,370 6.7 -14.0°
